TimeMDT,TemperatureF,Dew PointF,Humidity,Sea Level PressureIn,VisibilityMPH,Wind Direction,Wind SpeedMPH,Gust SpeedMPH,PrecipitationIn,Events,Conditions,WindDirDegrees,DateUTC
12:53 AM,52.0,27.0,38,29.91,10.0,NNE,9.2,-,N/A,,Scattered Clouds,30,2012-10-12 06:53:00
1:53 AM,51.1,27.0,39,29.90,10.0,West,3.5,-,N/A,,Clear,280,2012-10-12 07:53:00
2:53 AM,50.0,28.0,43,29.90,10.0,East,3.5,-,N/A,,Mostly Cloudy,90,2012-10-12 08:53:00
3:53 AM,51.8,28.4,41,30.04,10.0,Calm,Calm,-,N/A,,Overcast,0,2012-10-12 09:53:00
4:53 AM,50.0,37.0,61,29.96,9.0,SW,5.8,-,0.00,Rain,Rain,220,2012-10-12 10:53:00
5:53 AM,50.0,43.0,77,29.92,10.0,Calm,Calm,-,0.02,Rain,Light Rain,0,2012-10-12 11:53:00
6:53 AM,51.1,44.1,77,29.91,10.0,Calm,Calm,-,0.00,,Overcast,0,2012-10-12 12:53:00
7:53 AM,51.8,44.6,76,30.04,10.0,ENE,6.9,-,N/A,,Overcast,70,2012-10-12 13:53:00
8:53 AM,48.9,46.9,93,29.98,4.0,NNW,5.8,-,0.05,Rain,Rain,330,2012-10-12 14:53:00
9:53 AM,52.0,48.0,86,29.94,6.0,NW,4.6,-,0.02,Rain,Light Rain,320,2012-10-12 15:53:00
10:53 AM,51.8,44.6,76,30.02,10.0,SSW,6.9,-,N/A,,Overcast,200,2012-10-12 16:53:00
11:19 AM,51.8,46.4,82,30.01,10.0,Calm,Calm,-,0.00,Rain,Light Rain,0,2012-10-12 17:19:00
11:45 AM,51.8,46.4,82,30.01,10.0,ENE,3.5,-,0.01,Rain,Light Rain,60,2012-10-12 17:45:00
11:53 AM,52.0,46.9,83,29.95,10.0,East,8.1,-,0.01,Rain,Light Rain,80,2012-10-12 17:53:00
12:33 PM,41.0,37.4,87,30.06,1.5,SW,5.8,-,0.11,Rain-Thunderstorm,Heavy Thunderstorms and Rain,220,2012-10-12 18:33:00
12:36 PM,41.0,37.4,87,30.05,2.0,Calm,Calm,-,0.12,Rain-Thunderstorm,Thunderstorms and Rain,0,2012-10-12 18:36:00
12:53 PM,42.1,39.0,89,30.01,7.0,North,11.5,-,0.14,Rain,Rain,350,2012-10-12 18:53:00
1:53 PM,50.0,41.0,71,29.93,10.0,ENE,11.5,-,0.00,,Partly Cloudy,70,2012-10-12 19:53:00
2:53 PM,51.1,42.1,71,29.91,10.0,ESE,6.9,-,N/A,,Clear,110,2012-10-12 20:53:00
3:53 PM,51.1,41.0,68,29.90,10.0,Calm,Calm,-,N/A,,Overcast,0,2012-10-12 21:53:00
4:11 PM,51.8,41.0,67,29.98,10.0,Calm,Calm,-,N/A,,Overcast,0,2012-10-12 22:11:00
4:36 PM,51.8,42.8,71,29.97,10.0,East,8.1,-,N/A,,Mostly Cloudy,100,2012-10-12 22:36:00
4:53 PM,52.0,43.0,71,29.91,10.0,ESE,9.2,-,N/A,,Partly Cloudy,120,2012-10-12 22:53:00
5:19 PM,46.4,39.2,76,29.98,10.0,ESE,16.1,26.5,N/A,,Overcast,110,2012-10-12 23:19:00
5:53 PM,46.9,39.0,74,29.95,10.0,ESE,9.2,-,N/A,,Overcast,110,2012-10-12 23:53:00
6:53 PM,46.0,37.0,71,29.98,10.0,East,4.6,-,N/A,,Overcast,100,2012-10-13 00:53:00
7:53 PM,46.4,37.4,71,30.03,10.0,NNE,3.5,-,N/A,,Overcast,30,2012-10-13 01:53:00
8:53 PM,45.0,39.9,82,30.01,10.0,Calm,Calm,-,N/A,,Overcast,0,2012-10-13 02:53:00
9:53 PM,43.0,39.0,86,30.02,10.0,Calm,Calm,-,0.00,,Overcast,0,2012-10-13 03:53:00
10:53 PM,43.0,39.0,86,30.04,10.0,Calm,Calm,-,0.01,,Overcast,0,2012-10-13 04:53:00
11:53 PM,43.0,39.0,86,30.04,10.0,Calm,Calm,-,N/A,,Overcast,0,2012-10-13 05:53:00